EW7772 Weather Reports


Display with metric or nautical units.
time (UTC)temp
F
wind
direction
speed
MPH
gust
MPH
rain 1hr
in
rain 24hr
in
rain mn
in
humidity
%
barometer
mb
20260506043015 46 279 0.0 0.0 0.00 0.09 0.00 96 1007.0
20260506041515 46 279 0.0 0.0 0.00 0.09 0.00 96 1007.0
20260506040014 46 279 0.0 0.0 0.00 0.09 0.00 96 1007.1
20260506034532 46 279 0.0 0.0 0.00 0.09 0.00 96 1007.2
20260506033011 46 279 0.0 0.0 0.00 0.09 0.00 95 1007.3
20260506031511 45 279 0.0 0.0 0.00 0.09 0.00 95 1007.4
20260506030011 46 279 0.0 0.0 0.00 0.09 0.00 95 1007.4
20260506024509 46 279 0.0 0.0 0.00 0.09 0.00 95 1007.3
20260506023006 46 279 0.0 0.0 0.00 0.09 0.00 95 1007.4
20260506021505 47 279 0.0 0.0 0.00 0.09 0.00 95 1007.5
20260506020004 47 279 0.0 0.0 0.00 0.09 0.00 95 1007.7
20260506014504 47 279 0.0 0.0 0.00 0.09 0.00 95 1007.9
20260506013003 47 278 0.0 0.0 0.00 0.09 0.00 95 1008.0
20260506011502 47 278 0.0 0.0 0.00 0.09 0.00 94 1007.7
20260506010104 48 278 0.0 0.0 0.00 0.09 0.00 95 1007.7
20260506004626 48 278 0.0 0.0 0.00 0.09 0.00 95 1007.7
20260506003110 48 278 0.0 0.0 0.00 0.09 0.00 94 1007.8
20260506001556 48 278 0.0 0.0 0.00 0.09 0.00 94 1008.2
20260506000051 49 278 0.0 0.0 0.00 0.09 0.00 94 1008.1
20260505234614 49 278 0.0 0.0 0.00 0.09 0.00 94 1008.4
20260505233049 50 278 0.0 0.0 0.00 0.09 0.00 94 1008.4
20260505231547 50 278 0.0 0.0 0.00 0.09 0.00 94 1008.4
20260505230045 51 278 0.0 0.0 0.00 0.09 0.00 94 1008.3
20260505224546 51 278 0.0 0.0 0.00 0.09 0.00 94 1008.4
20260505223042 51 278 0.0 0.0 0.00 0.09 0.00 94 1008.3
20260505221539 52 278 0.0 0.0 0.00 0.09 0.00 94 1008.2
20260505220054 52 278 0.0 0.0 0.00 0.09 0.00 94 1008.1
20260505214540 53 278 0.0 0.0 0.00 0.09 0.09 93 1008.2
20260505213035 54 278 0.0 0.0 0.00 0.09 0.09 94 1008.2
20260505211542 53 278 0.0 0.0 0.01 0.09 0.09 94 1008.3
20260505210034 54 278 0.0 0.0 0.01 0.09 0.09 93 1008.3
20260505204535 54 278 0.0 0.0 0.01 0.09 0.09 93 1008.2
20260505203033 54 278 0.0 0.0 0.01 0.09 0.09 93 1008.0
20260505201535 55 278 0.0 0.0 0.00 0.08 0.08 93 1007.8
20260505200034 55 278 0.0 0.0 0.00 0.08 0.08 93 1007.6
20260505194536 55 278 0.0 0.0 0.00 0.08 0.08 92 1007.5
20260505193039 55 278 0.0 0.0 0.00 0.08 0.08 91 1007.5
20260505191546 56 278 0.0 0.0 0.00 0.08 0.08 91 1007.4
20260505190033 56 278 0.0 0.0 0.01 0.08 0.08 90 1007.2
20260505184531 57 278 0.0 0.0 0.01 0.08 0.08 89 1007.2
20260505183030 58 278 0.0 0.0 0.01 0.08 0.08 87 1007.3
20260505181528 58 278 0.0 0.0 0.01 0.08 0.08 84 1007.3
20260505180041 58 278 0.0 0.0 0.00 0.07 0.07 82 1007.2
20260505174536 58 278 0.0 0.0 0.00 0.07 0.07 82 1007.1
20260505173026 58 278 0.0 0.0 0.00 0.07 0.07 80 1007.0
20260505171531 59 278 0.0 0.0 0.00 0.07 0.07 80 1006.9
20260505170028 59 278 0.0 0.0 0.00 0.07 0.07 79 1006.9
20260505164525 60 278 0.0 0.0 0.00 0.07 0.07 79 1006.9
20260505163025 60 278 0.0 0.0 0.00 0.07 0.07 80 1006.8
20260505161524 60 278 0.0 0.0 0.00 0.07 0.07 82 1006.8
20260505153026 60 277 0.0 2.0 0.00 0.07 0.07 83 1007.0
20260505151523 58 270 0.0 2.0 0.00 0.07 0.07 87 1007.2
20260505124518 65 295 0.0 2.0 0.00 0.00 0.00 68 1007.0
20260505123016 66 299 1.0 3.0 0.00 0.00 0.00 64 1006.9
20260505121517 67 275 0.0 3.0 0.00 0.00 0.00 62 1006.8
20260505120017 67 290 0.0 3.0 0.00 0.00 0.00 62 1006.8
20260505114515 67 289 0.0 1.0 0.00 0.00 0.00 62 1006.8
20260505113017 67 286 0.0 2.0 0.00 0.00 0.00 62 1006.7
20260505111514 67 286 0.0 1.0 0.00 0.00 0.00 62 1006.8
20260505101506 66 285 0.0 2.0 0.00 0.00 0.00 64 1007.4
20260505100005 67 285 0.0 2.0 0.00 0.00 0.00 63 1007.6
20260505094502 66 318 0.0 2.0 0.00 0.00 0.00 66 1007.6
20260505093100 65 360 0.0 1.0 0.00 0.00 0.00 67 1007.8
20260505091557 65 291 0.0 0.0 0.00 0.00 0.00 66 1008.0
20260505090058 64 265 0.0 2.0 0.00 0.00 0.00 68 1008.1
20260505084551 62 306 0.0 4.0 0.00 0.00 0.00 68 1008.3
20260505083100 61 275 0.0 2.0 0.00 0.00 0.00 72 1008.3
20260505081552 61 279 0.0 2.0 0.00 0.00 0.00 72 1008.5
20260505080045 61 276 0.0 1.0 0.00 0.00 0.00 70 1008.5
20260505074546 61 275 0.0 3.0 0.00 0.00 0.00 70 1008.6
20260505073042 61 277 0.0 4.0 0.00 0.00 0.00 71 1008.6
20260505071542 61 288 0.0 3.0 0.00 0.00 0.00 70 1008.7
20260505070047 61 288 0.0 3.0 0.00 0.00 0.00 71 1008.8
20260505064552 59 288 0.0 1.0 0.00 0.00 0.00 74 1009.0
20260505063035 58 282 0.0 0.0 0.00 0.00 0.00 77 1009.1
20260505061540 57 282 0.0 0.0 0.00 0.00 0.00 78 1009.1
20260505060034 56 282 0.0 1.0 0.00 0.00 0.00 80 1009.0
20260505054533 54 281 0.0 0.0 0.00 0.00 0.00 84 1009.2
20260505053031 53 281 0.0 0.0 0.00 0.00 0.00 85 1009.2
20260505051531 52 281 0.0 0.0 0.00 0.00 0.00 86 1009.3